Flag for Canada Weather past 2 weeks in Riverview, New Brunswick, Canada

Now
28 °F

Passing clouds.


Feels Like: 20 °F
Forecast: N/A
Wind: 8 mph from Northwest

Location: Moncton

Current Time: Dec 19, 2014 at 7:36:27 PM

Latest Report: Dec 19, 2014 at 7:00 PM


Visibility: 15 mi

Pressure: 29.90 "Hg

Humidity: 86%

Dew point: 25 °F

Location of RiverviewLocation

Historic Weather in Riverview — Graph

°F

Riverview temperature yesterday

Maximum temperature yesterday: 34 °F (at 2:00 AM)
Minimum temperature yesterday: 32 °F (at 12:00 AM)
Average temperature yesterday: 33 °F

Past Weeks' High & Low Weather Summary

 TemperatureHumidityPressure
High50 °F (Dec 11, 2:00 PM)100% (Dec 6, 5:00 PM)30.84 "Hg (Dec 6, 5:00 PM)
Low1 °F (Dec 8, 6:00 AM)32% (Dec 5, 2:00 PM)29.32 "Hg (Dec 18, 5:00 PM)
Average29 °F84%30.04 "Hg
* Reported Dec 4 6:00 PM — Dec 19 6:00 PM, Riverview, Weather by CustomWeather, © 2014

Note: Actual official high and low records may vary slightly from our data, if they occured in-between our weather recording intervals... More about our weather records

Advertising

Riverview weather history for previous 24 hours

 ConditionsComfort  
Time TempWeatherWind HumidityBarometerVisibility
6:00 PM
Dec 19
27 °FPassing clouds.6 mph93%29.86 "Hg15 mi
5:00 PM28 °FLight snow. Passing clouds.6 mph93%29.84 "Hg12 mi
4:00 PM28 °FLight snow. Mostly cloudy.12 mph93%29.80 "Hg1 mi
3:00 PM28 °FLight snow. Mostly cloudy.10 mph93%29.77 "Hg1 mi
2:00 PM30 °FLight snow. Mostly cloudy.12 mph86%29.74 "Hg1 mi
1:45 PM30 °FLight snow. More clouds than sun.16 mph86%29.73 "Hg1 mi
1:00 PM30 °FLight snow. Low clouds.10 mph86%29.73 "Hg1 mi
12:00 PM28 °FLight snow. Low clouds.9 mph93%29.72 "Hg1 mi
11:00 AM30 °FLight snow. Mostly cloudy.10 mph86%29.71 "Hg5 mi
10:00 AM28 °FLight snow. Overcast.10 mph93%29.69 "Hg6 mi
9:00 AM28 °FLight snow. Mostly cloudy.10 mph93%29.67 "Hg2 mi
8:00 AM28 °FLight snow. Mostly cloudy.12 mph86%29.64 "Hg12 mi
7:00 AM28 °FLight snow. Mostly cloudy.9 mph93%29.62 "Hg7 mi
6:49 AM28 °FLight snow. Overcast.12 mph86%29.61 "Hg4 mi
6:00 AM28 °FLight snow. Mostly cloudy.10 mph93%29.59 "Hg4 mi
5:00 AM28 °FLight snow. Mostly cloudy.12 mph93%29.56 "Hg2 mi
4:56 AM28 °FLight snow. Mostly cloudy.16 mph93%29.56 "Hg2 mi
4:00 AM28 °FLight snow. Mostly cloudy.14 mph93%29.53 "Hg7 mi
3:00 AM30 °FLight snow. Mostly cloudy.15 mph93%29.51 "Hg5 mi
2:00 AM30 °FLight snow. Mostly cloudy.15 mph93%29.47 "Hg3 mi
1:00 AM30 °FLight snow. Mostly cloudy.15 mph93%29.44 "Hg2 mi
12:00 AM32 °FLight snow. Mostly cloudy.15 mph93%29.42 "Hg2 mi
11:00 PM
Dec 18
32 °FLight snow. Mostly cloudy.12 mph93%29.40 "Hg2 mi
10:00 PM32 °FLight snow. Low clouds.9 mph93%29.38 "Hg2 mi
9:46 PM32 °FLight snow. Low clouds.9 mph93%29.37 "Hg2 mi
9:00 PM32 °FLight snow. Mostly cloudy.9 mph93%29.35 "Hg5 mi
8:00 PM32 °FLight snow. Low clouds.7 mph93%29.34 "Hg1 mi
7:00 PM32 °FLight snow. Low clouds.9 mph93%29.33 "Hg1 mi
Weather by CustomWeather, © 2014

See weather overviewHow to use our weather pages